This is the latest recevied weather packets stored in our database for station/object K2CAT. If no packets are shown the sender has not sent any weather packets the latest 10 day(s).
| Time | Temp. | Humidity | Pressure | Rain* | Wind** | Luminosity | Snow |
|---|---|---|---|---|---|---|---|
| 1777720654 | 8.89° C | 99% | 1012.1 hPa | 0 mm | - | 36 W/m² | - |
| 1777720352 | 8.33° C | 99% | 1012.2 hPa | 0 mm | - | 18 W/m² | - |
| 1777720049 | 8.33° C | 99% | 1012.1 hPa | 0 mm | - | 24 W/m² | - |
| 1777719747 | 8.33° C | 99% | 1011.9 hPa | 0 mm | - | 22 W/m² | - |
| 1777719445 | 8.33° C | 99% | 1012 hPa | 0 mm | - | 10 W/m² | - |
| 1777719141 | 8.33° C | 99% | 1012 hPa | 0 mm | - | 15 W/m² | - |
| 1777718838 | 8.33° C | 99% | 1011.9 hPa | 0 mm | - | 13 W/m² | - |
| 1777718536 | 8.33° C | 99% | 1011.9 hPa | 0 mm | - | 12 W/m² | - |
| 1777718233 | 8.33° C | 99% | 1012 hPa | 0 mm | - | 11 W/m² | - |
| 1777717931 | 8.33° C | 99% | 1011.8 hPa | 0 mm | - | 11 W/m² | - |
| 1777717628 | 8.33° C | 99% | 1011.8 hPa | 0 mm | - | 16 W/m² | - |
| 1777717324 | 8.33° C | 99% | 1011.8 hPa | 0 mm | - | 11 W/m² | - |
| 1777717022 | 8.33° C | 99% | 1011.8 hPa | 0 mm | - | 8 W/m² | - |
| 1777716720 | 8.33° C | 99% | 1011.5 hPa | 0 mm | - | 8 W/m² | - |
| 1777716418 | 8.33° C | 99% | 1011.7 hPa | 0 mm | - | 6 W/m² | - |
| 1777716116 | 8.33° C | 99% | 1011.6 hPa | 0 mm | - | 4 W/m² | - |
| 1777715814 | 8.33° C | 99% | 1011.6 hPa | 0 mm | - | 2 W/m² | - |
| 1777715511 | 8.33° C | 99% | 1011.6 hPa | 0 mm | - | 1 W/m² | - |
| 1777715208 | 8.33° C | 99% | 1011.4 hPa | 0 mm | - | 1 W/m² | - |
| 1777714907 | 8.33° C | 99% | 1011.4 hPa | 0 mm | - | 0 W/m² | - |
| 1777714604 | 8.33° C | 99% | 1011.7 hPa | 0 mm | - | 0 W/m² | - |
| 1777714302 | 8.33° C | 99% | 1011.4 hPa | 0 mm | - | 0 W/m² | - |
| 1777713999 | 8.33° C | 98% | 1011.4 hPa | 0 mm | - | 0 W/m² | - |
| 1777713697 | 8.33° C | 98% | 1011.5 hPa | 0 mm | - | 0 W/m² | - |
| 1777713393 | 8.33° C | 98% | 1011.7 hPa | 0 mm | - | 0 W/m² | - |
* Rain latest hour (hover to see other rain measurements)
** Current wind speed in m/s (hover to see current wind gust speed)